GW3218 Weather Reports


time (UTC)temp
C
wind
direction
speed
KPH
gust
KPH
rain 1hr
cm
rain 24hr
cm
rain mn
cm
humidity
%
barometer
mb
20260507084510 13 321 0.0 0.0 0.00 0.00 0.00 77 1017.7
20260507083012 13 321 0.0 0.0 0.00 0.00 0.00 75 1017.6
20260507081512 13 321 0.0 1.6 0.00 0.00 0.00 72 1017.6
20260507080013 14 321 0.0 3.2 0.00 0.00 0.00 74 1017.8
20260507074511 15 311 0.0 4.8 0.00 0.00 0.00 73 1017.9
20260507073010 15 69 0.0 0.0 0.00 0.00 0.00 69 1017.9
20260507071526 15 69 0.0 3.2 0.00 0.00 0.00 71 1018.0
20260507070035 15 113 0.0 4.8 0.00 0.00 0.00 73 1018.1
20260507064525 15 329 0.0 1.6 0.00 0.00 0.00 72 1018.1
20260507063024 15 329 0.0 0.0 0.00 0.00 0.00 71 1018.1
20260507061525 15 329 0.0 6.4 0.00 0.00 0.00 71 1018.1
20260507060024 15 329 0.0 4.8 0.00 0.00 0.00 70 1018.0
20260507054521 16 329 0.0 0.0 0.00 0.00 0.00 69 1018.0
20260507053024 16 329 0.0 6.4 0.00 0.00 0.00 69 1018.0
20260507051523 16 346 0.0 3.2 0.00 0.00 0.00 68 1018.0
20260507050029 16 346 0.0 6.4 0.00 0.00 0.00 66 1018.0
20260507044525 17 352 0.0 6.4 0.00 0.00 0.00 65 1018.0
20260507043026 17 336 3.2 8.0 0.00 0.00 0.00 64 1017.8
20260507041526 17 349 0.0 6.4 0.00 0.00 0.00 62 1017.8
20260507040021 18 326 1.6 9.7 0.00 0.00 0.00 62 1017.5
20260507034525 18 328 3.2 12.9 0.00 0.00 0.00 61 1017.3
20260507033031 18 333 4.8 14.5 0.00 0.00 0.00 59 1017.2
20260507031537 19 333 4.8 9.7 0.00 0.00 0.00 57 1017.1
20260507030024 20 319 6.4 12.9 0.00 0.00 0.00 56 1016.8
20260507024524 20 321 1.6 12.9 0.00 0.00 0.00 55 1016.7
20260507023026 20 9 4.8 14.5 0.00 0.00 0.00 54 1016.5
20260507021526 21 292 6.4 14.5 0.00 0.00 0.00 53 1016.5
20260507020025 21 290 8.0 17.7 0.00 0.00 0.00 51 1016.3
20260507014527 22 290 9.7 17.7 0.00 0.00 0.00 49 1016.3
20260507013017 22 288 6.4 16.1 0.00 0.00 0.00 48 1016.2
20260507011528 23 290 8.0 16.1 0.00 0.00 0.00 46 1016.0
20260507010012 23 303 9.7 20.9 0.00 0.00 0.00 45 1015.9
20260507004512 24 305 8.0 19.3 0.00 0.00 0.00 43 1015.8
20260507003016 24 294 8.0 19.3 0.00 0.00 0.00 43 1015.8
20260507001519 25 310 8.0 19.3 0.00 0.00 0.00 41 1015.7
20260507000013 25 352 8.0 20.9 0.00 0.00 0.00 39 1015.6
20260506234514 25 323 8.0 19.3 0.00 0.00 0.00 39 1015.5
20260506233014 26 276 11.3 22.5 0.00 0.00 0.00 38 1015.5
20260506231515 26 288 8.0 17.7 0.00 0.00 0.00 37 1015.6
20260506230017 26 325 9.7 17.7 0.00 0.00 0.00 36 1015.7
20260506224514 25 315 8.0 17.7 0.00 0.00 0.00 35 1015.9
20260506223017 26 318 4.8 16.1 0.00 0.00 0.00 35 1015.9
20260506221511 25 291 8.0 16.1 0.00 0.00 0.00 36 1016.1
20260506220016 24 360 9.7 17.7 0.00 0.00 0.00 38 1016.3
20260506214514 25 283 9.7 19.3 0.00 0.00 0.00 38 1016.3
20260506213014 23 332 6.4 20.9 0.00 0.00 0.00 41 1016.7
20260506211520 23 318 4.8 19.3 0.00 0.00 0.00 41 1016.9
20260506210018 23 346 6.4 16.1 0.00 0.00 0.00 42 1016.9
20260506204516 22 292 6.4 16.1 0.00 0.00 0.00 43 1017.1
20260506203014 21 236 6.4 24.1 0.00 0.00 0.00 45 1017.1
20260506201519 21 281 4.8 14.5 0.00 0.00 0.00 48 1017.2
20260506200013 21 281 9.7 17.7 0.00 0.00 0.00 46 1017.3
20260506194516 21 77 0.0 14.5 0.00 0.00 0.00 49 1017.6
20260506193015 20 304 0.0 9.7 0.00 0.00 0.00 50 1017.9
20260506191517 20 211 4.8 12.9 0.00 0.00 0.00 49 1018.1
20260506190016 20 182 3.2 11.3 0.00 0.00 0.00 50 1018.2
20260506184517 18 220 1.6 12.9 0.00 0.00 0.00 51 1018.3
20260506183016 18 190 1.6 14.5 0.00 0.00 0.00 54 1018.4
20260506181518 17 314 0.0 17.7 0.00 0.00 0.00 56 1018.6
20260506180025 17 238 4.8 14.5 0.00 0.00 0.00 57 1018.7
20260506174520 17 112 6.4 16.1 0.00 0.00 0.00 57 1018.6
20260506173021 16 96 4.8 12.9 0.00 0.00 0.00 59 1018.6
20260506171517 16 200 1.6 9.7 0.00 0.00 0.00 61 1018.6
20260506170017 15 146 6.4 12.9 0.00 0.00 0.00 64 1018.6
20260506164516 15 175 3.2 8.0 0.00 0.00 0.00 65 1018.6
20260506163025 14 160 4.8 12.9 0.00 0.00 0.00 66 1018.6
20260506161516 14 232 0.0 9.7 0.00 0.00 0.00 67 1018.5
20260506160016 13 22 0.0 6.4 0.00 0.00 0.00 70 1018.5
20260506154521 12 84 4.8 6.4 0.00 0.00 0.00 73 1018.4
20260506153018 12 119 1.6 6.4 0.00 0.00 0.00 76 1018.5
20260506151522 11 75 0.0 3.2 0.00 0.00 0.00 78 1018.5
20260506150018 11 113 3.2 4.8 0.00 0.00 0.00 81 1018.5
20260506144518 10 276 0.0 1.6 0.00 0.00 0.00 84 1018.5
20260506143023 9 276 0.0 1.6 0.00 0.00 0.00 86 1018.5
20260506141520 8 276 0.0 3.2 0.00 0.00 0.00 87 1018.5
20260506140019 8 276 0.0 1.6 0.00 0.00 0.00 85 1018.4
20260506134516 7 244 0.0 1.6 0.00 0.03 0.00 83 1018.2
20260506133017 7 244 0.0 0.0 0.00 0.03 0.00 83 1018.0
20260506131523 7 244 0.0 0.0 0.00 0.05 0.00 81 1017.9
20260506130018 8 244 0.0 0.0 0.00 0.20 0.00 81 1017.7
20260506124517 8 244 0.0 0.0 0.00 0.33 0.00 80 1017.7
20260506123019 8 244 0.0 0.0 0.00 0.36 0.00 78 1017.5
20260506121518 8 244 0.0 0.0 0.00 0.36 0.00 77 1017.5
20260506120020 8 244 0.0 0.0 0.00 0.36 0.00 79 1017.6
20260506114516 8 244 0.0 0.0 0.00 0.36 0.00 78 1017.4
20260506113018 8 244 0.0 0.0 0.00 0.36 0.00 77 1017.5
20260506111522 8 244 0.0 0.0 0.00 0.36 0.00 77 1017.4
20260506110022 9 244 0.0 0.0 0.00 0.36 0.00 79 1017.4
20260506104515 9 244 0.0 0.0 0.00 0.36 0.00 79 1017.4
20260506103020 9 244 0.0 0.0 0.00 0.36 0.00 77 1017.4
20260506101527 9 244 0.0 0.0 0.00 0.38 0.00 78 1017.4
20260506100019 10 244 0.0 0.0 0.00 0.38 0.00 79 1017.4
20260506094522 10 232 0.0 1.6 0.00 0.38 0.00 80 1017.4
20260506093021 10 217 0.0 0.0 0.00 0.38 0.00 78 1017.4
20260506091518 10 211 0.0 0.0 0.00 0.38 0.00 78 1017.6
20260506090019 10 211 0.0 0.0 0.00 0.38 0.00 75 1017.8